Hourly Data Report for September 01, 2017

All times are specified in Local Standard Time (LST). Add 1 hour to adjust for Daylight Saving Time where and when it is observed.

DOAKTOWN AUTO RCS
NEW BRUNSWICK

46°35'06.090" N
66°00'35.071" W
43.00 m
8101201
71038
ADN

Download Data

Hourly Data (September 2017)
Hourly Data Report for September 1, 2017
Temp Definition
°C
Dew Point Temp Definition
°C
Rel Hum Definition
%
Wind Dir Definition
10's deg

Wind Spd Definition
km/h
Visibility Definition
km
Stn Press Definition
kPa
Hmdx Definition


Wind Chill Definition


Weather Definition


TIME
00:00 8.3 5.7 84 25 4   99.95     LegendNANA
01:00 7.2 5.4 88 25 3   99.95     LegendNANA
02:00 7.1 5.9 92 28 6   99.92     LegendNANA
03:00 6.3 5.4 94 25 1   99.93     LegendNANA
04:00 6.4 5.6 95 24 5   99.94     LegendNANA
05:00 7.3 6.2 93 27 8   99.97     LegendNANA
06:00 5.6 4.6 93   0   100.01     LegendNANA
07:00 8.4 7.0 91 24 6   100.04     LegendNANA
08:00 10.0 6.7 80 24 8   100.02     LegendNANA
09:00 12.1 6.0 66 28 12   100.02     LegendNANA
10:00 11.9 4.0 58 26 15   100.04     LegendNANA
11:00 14.2 4.0 50 25 17   100.00     LegendNANA
12:00 12.0 4.3 59 25 19   99.99     LegendNANA
13:00 10.9 7.5 79 27 12   100.04     LegendNANA
14:00 11.2 4.7 64 27 16   100.04     LegendNANA
15:00 11.3 4.7 64 26 22   100.05     LegendNANA
16:00 11.3 5.1 66 26 19   100.07     LegendNANA
17:00 11.5 5.8 68 26 18   100.11     LegendNANA
18:00 11.3 6.2 71 27 13   100.18     LegendNANA
19:00 10.9 6.4 74 27 9   100.26     LegendNANA
20:00 10.4 6.8 78 26 10   100.39     LegendNANA
21:00 10.8 6.8 76 27 9   100.47     LegendNANA
22:00 10.4 6.5 77 27 10   100.54     LegendNANA
23:00 9.9 5.8 76 27 11   100.59     LegendNANA

Notes on Data Quality.

Legend

  • E = Estimated
  • M = Missing
  • NA = Not Available
  • ‡ = Partner data that is not subject to review by the National Climate Archives
Date modified: